Weather History for KSSF - September, 2011

Change the Weather History Date:

Monday, September 5, 2011

  Actual Average Record
Temperature  
Mean Temperature 84 °F -  
Max Temperature 95 °F 89 °F 111 °F (2000)
Min Temperature 75 °F 70 °F 66 °F (2006)
Cooling Degree Days 19    
Growing Degree Days 34 (Base 50)    
Moisture  
Dew Point 41 °F    
Average Humidity 25    
Maximum Humidity 47    
Minimum Humidity 8    
Precipitation  
Precipitation 0.00 in - - ()
Sea Level Pressure  
Sea Level Pressure 29.88 in    
Wind  
Wind Speed 13 mph (North)    
Max Wind Speed 18 mph    
Max Gust Speed 31 mph    
Visibility 10 miles    
Events      
Averages and records for this station are not official NWS values.
T = Trace of Precipitation, MM = Missing Value Source: NWS Daily Summary

Daily Weather History Graph

Daily Weather History Graph

Search for Another Location

Airport or City:

Trip Planner

Search our weather history database for the weather conditions in past years. The results will help you decide how hot, cold, wet, or windy it might be!

Date:

Astronomy

Sep. 05, 2011 Rise Set
Actual Time 7:13 AM CDT 7:51 PM CDT
Civil Twilight 6:49 AM CDT 8:15 PM CDT
Nautical Twilight 6:21 AM CDT 8:43 PM CDT
Astronomical Twilight 5:52 AM CDT 9:12 PM CDT
Moon 3:17 PM CDT (9/5) 12:52 AM CDT (9/5)
Length of Visible Light 13h 26m
Length of Day
12h 37m
First Quarter, 61% of the Moon is Illuminated
Sep 5
First Quarter
Sep 12
Full
Sep 20
Last Quarter
Sep 27
New
Oct 3
First Quarter

Hourly Weather History & Observations

Time (CDT) Temp. Heat Index Dew Point Humidity Pressure Visibility Wind Dir Wind Speed Gust Speed Precip Events Conditions
12:53 AM 88.0 °F 87.9 °F 61.0 °F 40% 29.81 in 10.0 mi North 13.8 mph 21.9 mph N/A   Clear
1:53 AM 86.0 °F 85.7 °F 60.1 °F 41% 29.82 in 10.0 mi North 16.1 mph 19.6 mph N/A   Clear
2:53 AM 84.9 °F 85.0 °F 61.0 °F 44% 29.82 in 10.0 mi North 18.4 mph 31.1 mph N/A   Clear
3:53 AM 82.9 °F 83.2 °F 60.1 °F 46% 29.83 in 10.0 mi North 13.8 mph 21.9 mph N/A   Clear
4:53 AM 82.0 °F 82.4 °F 60.1 °F 47% 29.83 in 10.0 mi North 12.7 mph 20.7 mph N/A   Clear
5:53 AM 81.0 °F 81.3 °F 59.0 °F 47% 29.85 in 10.0 mi North 8.1 mph - N/A   Clear
6:53 AM 80.1 °F 80.1 °F 55.0 °F 42% 29.87 in 10.0 mi North 9.2 mph 24.2 mph N/A   Clear
7:53 AM 80.1 °F - 50.0 °F 35% 29.90 in 10.0 mi North 17.3 mph 26.5 mph N/A   Clear
8:53 AM 81.0 °F - 48.0 °F 31% 29.91 in 10.0 mi North 15.0 mph 21.9 mph N/A   Clear
9:53 AM 82.9 °F - 46.9 °F 28% 29.93 in 10.0 mi North 18.4 mph 24.2 mph N/A   Clear
10:53 AM 84.9 °F - 46.0 °F 26% 29.94 in 10.0 mi NNE 17.3 mph 24.2 mph N/A   Clear
11:53 AM 88.0 °F - 41.0 °F 19% 29.94 in 10.0 mi North 18.4 mph 25.3 mph N/A   Clear
12:53 PM 90.0 °F - 37.0 °F 15% 29.93 in 10.0 mi North 16.1 mph 24.2 mph N/A   Clear
1:53 PM 91.9 °F - 33.1 °F 12% 29.91 in 10.0 mi North 15.0 mph 23.0 mph N/A   Clear
2:53 PM 93.0 °F - 30.9 °F 11% 29.88 in 10.0 mi North 12.7 mph 24.2 mph N/A   Clear
3:53 PM 93.9 °F - 28.9 °F 10% 29.86 in 10.0 mi NNW 12.7 mph 21.9 mph N/A   Clear
4:53 PM 93.9 °F - 28.0 °F 10% 29.85 in 10.0 mi North 10.4 mph 26.5 mph N/A   Clear
5:53 PM 93.0 °F - 26.1 °F 9% 29.85 in 10.0 mi North 11.5 mph 21.9 mph N/A   Clear
6:53 PM 91.0 °F - 23.0 °F 8% 29.86 in 10.0 mi NNE 11.5 mph 20.7 mph N/A   Clear
7:53 PM 87.1 °F - 21.0 °F 9% 29.88 in 10.0 mi North 8.1 mph - N/A   Clear
8:53 PM 82.9 °F - 23.0 °F 11% 29.90 in 10.0 mi NNE 4.6 mph - N/A   Clear
9:53 PM 80.1 °F - 26.1 °F 14% 29.94 in 10.0 mi North 3.5 mph - N/A   Clear
10:53 PM 75.0 °F - 28.9 °F 18% 29.95 in 10.0 mi Calm Calm - N/A   Clear
11:53 PM 75.0 °F - 28.9 °F 18% 29.96 in 10.0 mi NNE 3.5 mph - N/A   Clear